Ignacio, CO

4:58 PM MST on February 07, 2016 (GMT -0700)
Durango-La Plata County

Weather History for KDRO - September, 2012

Change the Weather History Date:

Friday, September 21, 2012

  Actual Average Record
Temperature  
Mean Temperature 58 °F 57 °F  
Max Temperature 80 °F 74 °F - ()
Min Temperature 36 °F 40 °F - ()
Degree Days  
Heating Degree Days 7 8  
Month to date heating degree days 64 102  
Since 1 July heating degree days 69 131  
Cooling Degree Days 0 0  
Month to date cooling degree days 35 3  
Year to date cooling degree days 477 240  
Growing Degree Days 8 (Base 50)    
Moisture  
Dew Point 19 °F    
Average Humidity 30    
Maximum Humidity 52    
Minimum Humidity 7    
Precipitation  
Precipitation 0.00 in 0.08 in - ()
Month to date precipitation 0.36 1.42  
Year to date precipitation 5.62 11.39  
Sea Level Pressure  
Sea Level Pressure 30.08 in    
Wind  
Wind Speed 4 mph (NW)    
Max Wind Speed 17 mph    
Max Gust Speed 23 mph    
Visibility 10 miles    
Events      
T = Trace of Precipitation, MM = Missing Value Source: NWS Daily Summary

Daily Weather History Graph

Daily Weather History Graph

Search for Another Location

Airport or City:

Trip Planner

Search our weather history database for the weather conditions in past years. The results will help you decide how hot, cold, wet, or windy it might be!

Date:

Astronomy

Sep. 21, 2012 Rise Set
Actual Time 6:58 AM MDT 7:08 PM MDT
Civil Twilight 6:32 AM MDT 7:34 PM MDT
Nautical Twilight 6:02 AM MDT 8:04 PM MDT
Astronomical Twilight 5:31 AM MDT 8:35 PM MDT
Moon 1:14 PM MDT (9/21) 11:20 PM MDT (9/21)
Length of Visible Light 13h 02m
Length of Day
12h 10m
Waxing Crescent, 38% of the Moon is Illuminated
Sep 21
Waxing Crescent
Sep 22
First Quarter
Sep 29
Full
Oct 8
Last Quarter
Oct 15
New

Hourly Weather History & Observations

Time (MDT) Temp. Windchill Dew Point Humidity Pressure Visibility Wind Dir Wind Speed Gust Speed Precip Events Conditions
12:53 AM 46.0 °F 43.9 °F 19.9 °F 35% 30.04 in 10.0 mi NE 4.6 mph - N/A   Clear
1:53 AM 46.9 °F - 19.9 °F 34% 30.04 in 10.0 mi Calm Calm - N/A   Clear
2:53 AM 46.9 °F - 21.9 °F 37% 30.04 in 10.0 mi North 4.6 mph - N/A   Clear
3:53 AM 44.1 °F - 21.0 °F 40% 30.05 in 10.0 mi Calm Calm - N/A   Clear
4:53 AM 39.0 °F 35.7 °F 21.0 °F 49% 30.08 in 10.0 mi NE 4.6 mph - N/A   Clear
5:53 AM 37.9 °F - 21.0 °F 51% 30.10 in 10.0 mi Calm Calm - N/A   Clear
6:53 AM 37.0 °F - 21.9 °F 54% 30.13 in 10.0 mi Calm Calm - N/A   Clear
7:53 AM 42.1 °F - 23.0 °F 47% 30.16 in 10.0 mi Calm Calm - N/A   Clear
8:53 AM 51.1 °F - 25.0 °F 36% 30.14 in 10.0 mi Calm Calm - N/A   Clear
9:53 AM 61.0 °F - 21.9 °F 22% 30.12 in 10.0 mi Calm Calm - N/A   Clear
10:53 AM 69.1 °F - 25.0 °F 19% 30.09 in 10.0 mi ESE 6.9 mph - N/A   Clear
11:53 AM 73.0 °F - 18.0 °F 12% 30.11 in 10.0 mi ENE 6.9 mph - N/A   Clear
12:53 PM 77.0 °F - 18.0 °F 11% 30.09 in 10.0 mi Variable 4.6 mph - N/A   Clear
1:53 PM 78.1 °F - 14.0 °F 9% 30.05 in 10.0 mi WSW 9.2 mph - N/A   Clear
2:53 PM 78.1 °F - 12.9 °F 8% 30.02 in 10.0 mi West 8.1 mph - N/A   Clear
3:53 PM 79.0 °F - 12.0 °F 8% 30.02 in 10.0 mi SW 10.4 mph 17.3 mph N/A   Clear
4:53 PM 78.1 °F - 10.9 °F 8% 30.03 in 10.0 mi WSW 9.2 mph - N/A   Clear
5:53 PM 77.0 °F - 15.1 °F 10% 30.05 in 10.0 mi WSW 6.9 mph - N/A   Clear
6:53 PM 73.0 °F - 16.0 °F 11% 30.08 in 10.0 mi WSW 8.1 mph - N/A   Clear
7:53 PM 69.1 °F - 16.0 °F 13% 30.08 in 10.0 mi Calm Calm - N/A   Clear
8:53 PM 60.1 °F - 19.0 °F 20% 30.10 in 10.0 mi North 9.2 mph - N/A   Clear
9:53 PM 57.0 °F - 18.0 °F 22% 30.08 in 10.0 mi Calm Calm - N/A   Clear
10:53 PM 55.0 °F - 19.0 °F 24% 30.06 in 10.0 mi North 4.6 mph - N/A   Clear
11:53 PM 50.0 °F - 19.9 °F 31% 30.06 in 10.0 mi Calm Calm - N/A   Clear